Home   Weather   Surrey   Past weeks
Flag for Canada

Past Weather in Surrey, British Columbia, Canada — Yesterday and Last 2 Weeks

Now
51 °F

Cool.


Feels Like: 51 °F
Forecast: 54 / 45 °F
Wind: 1 mph from Northeast

Location: P. Meadows Coastal Station

Current Time: Oct 14, 2019 at 9:41:16 pm

Latest Report: Oct 14, 2019 at 9:00 pm


Visibility: N/A

Pressure: 30.06 "Hg

Humidity: 83%

Dew Point: 46 °F

Location of SurreyLocation

Past Weather in Surrey — Graph

°F

Surrey Temperature Yesterday

Maximum temperature yesterday: 57 °F (at 4:00 pm)
Minimum temperature yesterday: 42 °F (at 10:00 pm)
Average temperature yesterday: 50 °F

High & Low Weather Summary for the Past Weeks

 TemperatureHumidityPressure
High62 °F (Sep 30, 2:00 pm)100% (Oct 7, 2:00 pm)30.50 "Hg (Oct 7, 2:00 pm)
Low31 °F (Oct 10, 4:00 am)26% (Oct 9, 4:00 pm)29.74 "Hg (Oct 7, 7:00 pm)
Average48 °F80%30.13 "Hg
* Reported Sep 29 8:00 pm — Oct 14 8:00 pm, Surrey. Weather by CustomWeather, © 2019

Note: Actual official high and low records may vary slightly from our data, if they occured in-between our weather recording intervals... More about our weather records

Advertising

Surrey Weather History for the Previous 24 Hours

Scroll right to see more
 ConditionsComfort  
Time TempWeatherWind HumidityBarometerVisibility
8:00 pm
Mon, Oct 14
52 °FCool.1 mph78%30.08 "HgN/A
7:00 pm54 °FCool.1 mph72%30.07 "HgN/A
6:00 pm55 °FCool.1 mph69%30.07 "HgN/A
5:00 pm56 °FCool.3 mph65%30.08 "HgN/A
4:00 pm59 °FRefreshingly cool.2 mph52%30.10 "HgN/A
3:00 pm60 °FRefreshingly cool.1 mph52%30.10 "HgN/A
2:00 pm57 °FRefreshingly cool.2 mph58%30.11 "HgN/A
1:00 pm56 °FRefreshingly cool.2 mph58%30.12 "HgN/A
12:00 pm53 °FCool.2 mph77%30.13 "HgN/A
11:00 am50 °FCool.1 mph89%30.14 "HgN/A
10:00 am47 °FCool.1 mph95%30.13 "HgN/A
9:00 am44 °FQuite cool.1 mph100%30.12 "HgN/A
8:00 am44 °FQuite cool.No wind97%30.11 "HgN/A
7:00 am44 °FQuite cool.2 mph96%30.11 "HgN/A
6:00 am43 °FQuite cool.1 mph96%30.09 "HgN/A
5:00 am40 °FQuite cool.No wind100%30.08 "HgN/A
4:00 am41 °FQuite cool.1 mph96%30.07 "HgN/A
3:00 am41 °FQuite cool.No wind89%30.06 "HgN/A
2:00 am43 °FQuite cool.1 mph95%30.06 "HgN/A
1:00 am45 °FCool.No wind89%30.05 "HgN/A
12:00 am45 °FQuite cool.1 mph95%30.04 "HgN/A
11:00 pm
Sun, Oct 13
44 °FQuite cool.2 mph95%30.03 "HgN/A
10:00 pm42 °FQuite cool.No wind93%30.02 "HgN/A
9:00 pm44 °FQuite cool.1 mph91%30.01 "HgN/A
Weather by CustomWeather, © 2019

See weather overview